Hourly Weather Folkern

Today, 24 January, Sunday

Time Temperature Precipitation Wind Pressure Humidity
00:00 0°C° 0.6 mm 8 mps 741 mmHg 73%
01:00 0°C° 0.2 mm 7 mps 741 mmHg 75%
02:00 +1°C° 0.2 mm 6 mps 741 mmHg 76%
03:00 +1°C° 0.2 mm 6 mps 740 mmHg 78%
04:00 0°C° 0 mm 5 mps 740 mmHg 77%
05:00 0°C° 0 mm 5 mps 740 mmHg 76%
06:00 -1°C° 0 mm 4 mps 740 mmHg 75%
07:00 0°C° 0 mm 3 mps 741 mmHg 76%
08:00 0°C° 0 mm 3 mps 741 mmHg 77%
09:00 +1°C° 0 mm 2 mps 741 mmHg 79%
10:00 +2°C° 0 mm 2 mps 742 mmHg 79%
11:00 +2°C° 0 mm 2 mps 742 mmHg 79%
12:00 +4°C° 0 mm 1 mps 743 mmHg 79%
13:00 +4°C° 0 mm 2 mps 743 mmHg 78%
14:00 +3°C° 0 mm 3 mps 744 mmHg 78%
15:00 +3°C° 0 mm 4 mps 744 mmHg 78%
16:00 +2°C° 0.1 mm 5 mps 745 mmHg 79%
17:00 +2°C° 0.1 mm 5 mps 745 mmHg 80%
18:00 +2°C° 0.1 mm 6 mps 746 mmHg 81%
19:00 +2°C° 0.3 mm 7 mps 746 mmHg 81%
20:00 +2°C° 0.3 mm 7 mps 747 mmHg 82%
21:00 +1°C° 0.3 mm 8 mps 747 mmHg 82%
22:00 +2°C° 0.1 mm 7 mps 747 mmHg 82%
23:00 +2°C° 0.1 mm 7 mps 748 mmHg 81%

Tomorrow, 25 January, Monday

Time Temperature Precipitation Wind Pressure Humidity
00:00 0°C° 0.1 mm 7 mps 748 mmHg 81%
01:00 +1°C° 0.1 mm 6 mps 749 mmHg 80%
02:00 +1°C° 0.1 mm 6 mps 749 mmHg 80%
03:00 +1°C° 0.1 mm 5 mps 749 mmHg 79%
04:00 +1°C° 0.1 mm 5 mps 750 mmHg 79%
05:00 +1°C° 0.1 mm 5 mps 750 mmHg 78%
06:00 +1°C° 0.1 mm 5 mps 750 mmHg 77%
07:00 +1°C° 0.1 mm 5 mps 751 mmHg 78%
08:00 +1°C° 0.1 mm 4 mps 751 mmHg 79%
09:00 +1°C° 0.1 mm 4 mps 752 mmHg 80%
10:00 +1°C° 0.1 mm 4 mps 752 mmHg 79%
11:00 +3°C° 0.1 mm 4 mps 752 mmHg 79%
12:00 +4°C° 0.1 mm 4 mps 753 mmHg 79%
13:00 +3°C° 0 mm 3 mps 753 mmHg 78%
14:00 +3°C° 0 mm 3 mps 753 mmHg 77%
15:00 +3°C° 0 mm 3 mps 754 mmHg 77%
16:00 +3°C° 0 mm 3 mps 754 mmHg 76%
17:00 +2°C° 0 mm 3 mps 754 mmHg 75%
18:00 +2°C° 0 mm 3 mps 755 mmHg 75%
19:00 +1°C° 0 mm 3 mps 755 mmHg 74%
20:00 +1°C° 0 mm 3 mps 755 mmHg 73%
21:00 +1°C° 0 mm 3 mps 755 mmHg 72%
22:00 0°C° 0 mm 3 mps 755 mmHg 73%
23:00 0°C° 0 mm 3 mps 755 mmHg 74%

Day after tomorrow, 26 January, Tuesday

Time Temperature Precipitation Wind Pressure Humidity
00:00 -1°C° 0 mm 4 mps 755 mmHg 76%
01:00 -1°C° 0 mm 4 mps 755 mmHg 77%
02:00 -1°C° 0 mm 5 mps 754 mmHg 79%
03:00 -2°C° 0 mm 6 mps 754 mmHg 81%
04:00 -2°C° 0 mm 7 mps 753 mmHg 81%
05:00 -2°C° 0 mm 8 mps 752 mmHg 81%
06:00 -2°C° 0 mm 8 mps 751 mmHg 81%
07:00 -3°C° 0.2 mm 9 mps 751 mmHg 81%
08:00 -2°C° 0.2 mm 11 mps 750 mmHg 80%
09:00 -2°C° 0.2 mm 12 mps 749 mmHg 80%
10:00 -2°C° 0.8 mm 12 mps 748 mmHg 84%
11:00 -2°C° 0.8 mm 12 mps 747 mmHg 88%
12:00 -3°C° 0.8 mm 12 mps 746 mmHg 92%
13:00 -3°C° 1.3 mm 11 mps 745 mmHg 93%
14:00 -3°C° 1.3 mm 10 mps 745 mmHg 94%
15:00 -3°C° 1.3 mm 9 mps 745 mmHg 95%
16:00 -1°C° 0.8 mm 9 mps 745 mmHg 96%
17:00 -1°C° 0.8 mm 8 mps 745 mmHg 96%
18:00 -1°C° 0.8 mm 8 mps 746 mmHg 97%
19:00 +1°C° 0.2 mm 8 mps 746 mmHg 94%
20:00 +3°C° 0.2 mm 9 mps 746 mmHg 91%
21:00 +5°C° 0.2 mm 9 mps 747 mmHg 89%
22:00 +5°C° 0 mm 10 mps 747 mmHg 88%
23:00 +5°C° 0 mm 10 mps 748 mmHg 87%

27 January, Wednesday

Time Temperature Precipitation Wind Pressure Humidity
00:00 +4°C° 0 mm 11 mps 748 mmHg 86%
01:00 +4°C° 0 mm 11 mps 748 mmHg 86%
02:00 +4°C° 0 mm 12 mps 748 mmHg 86%
03:00 +4°C° 0 mm 13 mps 749 mmHg 86%
04:00 +4°C° 0 mm 12 mps 749 mmHg 88%
05:00 +5°C° 0 mm 10 mps 749 mmHg 90%
06:00 +6°C° 0 mm 9 mps 749 mmHg 91%
07:00 +5°C° 0.1 mm 7 mps 749 mmHg 91%
08:00 +5°C° 0.1 mm 4 mps 749 mmHg 91%
09:00 +5°C° 0.1 mm 2 mps 749 mmHg 90%
10:00 +5°C° 0.6 mm 3 mps 749 mmHg 93%
11:00 +5°C° 0.6 mm 5 mps 749 mmHg 95%
12:00 +4°C° 0.6 mm 6 mps 748 mmHg 97%
13:00 +4°C° 0.1 mm 6 mps 747 mmHg 97%
14:00 +5°C° 0.1 mm 7 mps 746 mmHg 97%
15:00 +5°C° 0.1 mm 7 mps 745 mmHg 97%
16:00 +5°C° 1.2 mm 9 mps 744 mmHg 97%
17:00 +5°C° 1.2 mm 10 mps 743 mmHg 96%
18:00 +4°C° 1.2 mm 11 mps 742 mmHg 95%
19:00 +4°C° 1.8 mm 11 mps 741 mmHg 95%
20:00 +4°C° 1.8 mm 11 mps 741 mmHg 96%
21:00 +6°C° 1.8 mm 11 mps 740 mmHg 96%
22:00 +6°C° 1.7 mm 11 mps 739 mmHg 96%
23:00 +4°C° 1.7 mm 11 mps 738 mmHg 96%

28 January, Thursday

Time Temperature Precipitation Wind Pressure Humidity
00:00 +4°C° 1.7 mm 11 mps 737 mmHg 96%
01:00 +6°C° 0.5 mm 10 mps 737 mmHg 97%
02:00 +6°C° 0.5 mm 9 mps 737 mmHg 97%
03:00 +6°C° 0.5 mm 7 mps 737 mmHg 97%
04:00 +6°C° 0.2 mm 9 mps 738 mmHg 96%
05:00 +6°C° 0.2 mm 10 mps 739 mmHg 95%
06:00 +7°C° 0.2 mm 12 mps 740 mmHg 95%
07:00 +6°C° 0 mm 11 mps 741 mmHg 91%
08:00 +6°C° 0 mm 9 mps 742 mmHg 87%
09:00 +6°C° 0 mm 8 mps 743 mmHg 83%
10:00 +6°C° 0 mm 7 mps 744 mmHg 84%
11:00 +6°C° 0 mm 7 mps 745 mmHg 85%
12:00 +7°C° 0 mm 6 mps 746 mmHg 86%
13:00 +7°C° 0 mm 6 mps 746 mmHg 87%
14:00 +7°C° 0 mm 6 mps 746 mmHg 88%
15:00 +7°C° 0 mm 6 mps 746 mmHg 89%
16:00 +5°C° 0 mm 8 mps 745 mmHg 90%
17:00 +5°C° 0 mm 9 mps 745 mmHg 91%
18:00 +3°C° 0 mm 10 mps 744 mmHg 92%

29 January, Friday

Time Temperature Precipitation Wind Pressure Humidity
Show more